This demonstration page uses our WeatherBlox Daily Observations layout. Learn more.

Left ArrowRight Arrow

44.8408, -93.29828

Hourly Observations for November 4, 2015

Temp ( °F °C ) Dew Point ( °F °C ) Humidity (%) Winds ( mph kmh ) Pressure ( in mb ) Visibility ( mi km ) Precip ( " mm )
12:53 am 00:53 Clear 59 15 53 11.7 81 81 S 10 17 29.88 1012 7 11 0.00 0.00
1:53 am 01:53 Clear 59 15 53 11.7 81 81 S 12 19 29.87 1011 8 13 0.00 0.00
2:53 am 02:53 Clear 58 14.4 52 11.1 81 81 SSE 8 13 29.86 1011 8 13 0.00 0.00
3:53 am 03:53 Clear with Mist and Fog 53 11.7 51 10.6 93 93 SE 9 15 29.86 1011 6 10 0.00 0.00
4:53 am 04:53 Clear 53 11.7 51 10.6 93 93 ESE 8 13 29.87 1012 7 11 0.00 0.00
5:53 am 05:53 Clear 52 11.1 50 10 93 93 ESE 9 15 29.87 1011 7 11 0.00 0.00
6:53 am 06:53 Clear 52 11.1 50 10 93 93 ESE 6 9 29.87 1012 7 11 0.00 0.00
7:53 am 07:53 Mostly Sunny 54 12.2 51 10.6 90 90 SE 8 13 29.88 1012 8 13 0.00 0.00
8:53 am 08:53 Mostly Cloudy 57 13.9 53 11.7 87 87 SSE 10 17 29.87 1012 8 13 0.00 0.00
9:53 am 09:53 Cloudy 59 15 54 12.2 83 83 S 14 22 29.86 1011 9 14 0.00 0.00
10:53 am 10:53 Cloudy 59 15 54 12.2 83 83 S 10 17 29.88 1012 9 14 0.00 0.00
11:53 am 11:53 Cloudy 60 15.6 54 12.2 80 80 S 12 19 29.86 1011 8 13 0.00 0.00
12:53 pm 12:53 Cloudy 59 15 54 12.2 83 83 S 16 26 29.84 1011 8 13 0.00 0.00
1:53 pm 13:53 Cloudy 59 15 54 12.2 83 83 S 16 26 29.84 1011 8 13 0.00 0.00
2:53 pm 14:53 Cloudy 60 15.6 55 12.8 84 84 S 16 26 29.83 1010 8 13 0.00 0.00
3:53 pm 15:53 Cloudy 60 15.6 55 12.8 84 84 S 14 22 29.83 1010 8 13 0.00 0.00
4:53 pm 16:53 Cloudy 60 15.6 54 12.2 80 80 S 13 20 29.83 1010 8 13 0.00 0.00
5:38 pm 17:38 Cloudy 60 15.6 54 12.2 80 80 S 15 24 29.83 1010 8 13 0.00 0.00
5:53 pm 17:53 Cloudy 60 15.6 54 12.2 80 80 S 16 26 29.83 1010 9 14 0.00 0.00
6:53 pm 18:53 Cloudy 60 15.6 54 12.2 80 80 S 14 22 29.83 1010 9 14 0.00 0.00
7:53 pm 19:53 Cloudy 61 16.1 55 12.8 81 81 S 12 19 29.83 1010 9 14 0.00 0.00
8:53 pm 20:53 Cloudy 61 16.1 55 12.8 81 81 S 16 26 29.83 1010 9 14 0.00 0.00
9:39 pm 21:39 Cloudy 61 16.1 55 12.8 81 81 S 12 19 29.83 1010 9 14 0.00 0.00
9:53 pm 21:53 Cloudy 61 16.1 55 12.8 81 81 S 13 20 29.83 1010 9 14 0.00 0.00
10:53 pm 22:53 Cloudy 62 16.7 55 12.8 78 78 S 10 17 29.82 1010 9 14 0.00 0.00
11:53 pm 23:53 Cloudy 62 16.7 55 12.8 78 78 S 10 17 29.81 1010 9 14 0.00 0.00

Powered by AerisWeather